[[{"header":{"parameterUnit":"m.s-1","parameterCategory":1,"la1":30.2992,"la2":30.254,"lo1":-89.0895,"lo2":-89.0443,"dy":0.0025,"dx":0.0025,"nx":19,"ny":19,"refTime":"2026-03-30T09:00:00:Z","depth":0,"parameterNumber":2,"parameterNumberName":"U-component_of_WINDS"},"data":[0,0,0,-2.711,-2.7111,-2.7181,-2.7181,-2.7276,-2.7277,0,0,0,0,0,0,0,0,0,0,0,-2.7093,-2.7094,-2.711,-2.7112,-2.7181,-2.7181,-2.7276,-2.7277,0,0,0,0,0,0,0,0,0,0,0,-2.7093,-2.7094,-2.7095,-2.7112,-2.7181,-2.7181,-2.7276,-2.7221,0,0,0,0,0,0,0,0,0,0,-2.7153,-2.7141,-2.7093,-2.7095,-2.7112,-2.7181,-2.7181,-2.7218,-2.7225,-2.7247,0,-2.7268,0,-2.7274,-2.7284,-2.7284,0,0,0,-2.7109,-2.7136,-2.7151,-2.7095,-2.7113,-2.7181,-2.7149,-2.7222,-2.7229,-2.7255,-2.727,-2.7273,-2.7276,-2.7284,-2.7285,-2.7424,-2.7425,0,0,-2.7105,-2.7108,-2.7146,-2.7156,-2.7145,-2.7147,-2.7151,-2.7226,-2.7242,-2.727,-2.7275,-2.7277,-2.7285,-2.7286,-2.7423,-2.7424,0,0,0,-2.7096,-2.7105,-2.7118,-2.7152,-2.7164,-2.7149,-2.7154,-2.7238,-2.7242,-2.7276,-2.7278,-2.7286,-2.7287,-2.7422,-2.7424,-2.7464,0,0,0,-2.7093,-2.71,-2.7117,-2.7119,-2.7163,-2.7202,-2.7165,-2.7237,-2.7246,-2.7278,-2.7286,-2.7288,-2.7422,-2.7423,-2.7461,-2.7482,0,0,0,-2.7087,-2.7099,-2.711,-2.7119,-2.7149,-2.7201,-2.7209,-2.7239,-2.7247,-2.7284,-2.7288,-2.7421,-2.7423,-2.7458,-2.7477,-2.7518,0,0,0,-2.7081,-2.7145,-2.7111,-2.7183,-2.7148,-2.7225,-2.7209,-2.7266,-2.7302,-2.7286,-2.7422,-2.7424,-2.7457,-2.7475,-2.7515,-2.7552,-2.7568,0,0,-2.7163,-2.7155,-2.7198,-2.7169,-2.7252,-2.7215,-2.7304,-2.7335,-2.7337,-2.7395,-2.7398,-2.7462,-2.7477,-2.7517,-2.7658,-2.767,0,0,0,-2.7224,-2.7255,-2.7276,-2.7311,-2.7337,-2.736,-2.7377,-2.7389,-2.7438,-2.7367,-2.7488,-2.7497,-2.7521,-2.7538,-2.7549,-2.7568,-2.7432,-2.7432,-2.7432,-2.7343,-2.7342,-2.7411,-2.7418,-2.7452,-2.7469,-2.7496,-2.7515,-2.7504,-2.7532,-2.7549,-2.7634,-2.7654,-2.7662,-2.7683,-2.7569,-2.7569,-2.7569,-2.757,-2.7462,-2.7504,-2.7488,-2.7549,-2.7547,-2.7599,-2.7618,-2.7608,-2.7656,-2.7621,-2.7642,-2.7604,-2.7676,-2.7694,-2.7573,-2.7572,-2.7572,-2.7571,-2.7571,-2.7539,-2.7559,-2.7572,-2.7621,-2.766,-2.7665,-2.7711,-2.7708,-2.7705,-2.7726,-2.7742,-2.7741,-2.7739,-2.7734,-2.7734,-2.7735,-2.7735,-2.7735,-2.7735,-2.7613,-2.7626,-2.7665,-2.7697,-2.7719,-2.7747,-2.7765,-2.7786,-2.7808,-2.7802,-2.7803,-2.7788,-2.7684,-2.7657,-2.774,-2.7739,-2.7738,-2.7738,-2.7738,-2.7732,-2.7704,-2.7765,-2.7786,-2.7823,-2.7861,-2.7857,-2.79,-2.7917,-2.794,-2.7921,-2.7846,-2.7837,-2.7828,-2.7806,-2.7922,-2.7922,-2.7922,-2.7922,-2.7796,-2.7791,-2.7852,-2.7886,-2.792,-2.7922,-2.7989,-2.8004,-2.8015,-2.8025,-2.8008,-2.7979,-2.7971,-2.7967,-2.7956,-2.7935,-2.8081,-2.8081,-2.8081,-2.7868,-2.7867,-2.7925,-2.7935,-2.7964,-2.7988,-2.8052,-2.8092,-2.8099,-2.8087,-2.8033,-2.8026,-2.7979,-2.7964,-2.795,-2.7932,-2.7894,0,0]},{"header":{"parameterUnit":"m.s-1","parameterCategory":1,"la1":30.2992,"la2":30.254,"lo1":-89.0895,"lo2":-89.0443,"dy":0.0025,"dx":0.0025,"nx":19,"ny":19,"refTime":"2026-03-30T09:00:00:Z","depth":0,"parameterNumber":3,"parameterNumberName":"V-component_of_WINDS"},"data":[0,0,0,2.4173,2.4174,2.421,2.421,2.4263,2.4263,0,0,0,0,0,0,0,0,0,0,0,2.4166,2.4167,2.4173,2.4174,2.421,2.421,2.4263,2.4263,0,0,0,0,0,0,0,0,0,0,0,2.4166,2.4167,2.4167,2.4174,2.421,2.421,2.4263,2.4233,0,0,0,0,0,0,0,0,0,0,2.4196,2.4195,2.4166,2.4167,2.4174,2.421,2.421,2.4231,2.4235,2.4249,0,2.4264,0,2.4265,2.4267,2.4268,0,0,0,2.417,2.4192,2.4198,2.4167,2.4174,2.421,2.4193,2.4233,2.4237,2.4254,2.4265,2.4266,2.4266,2.4268,2.4268,2.4366,2.4367,0,0,2.4168,2.4175,2.4195,2.4201,2.4196,2.4192,2.4194,2.4235,2.4247,2.4265,2.4267,2.4266,2.4268,2.4269,2.4366,2.4367,0,0,0,2.4165,2.4173,2.4178,2.4199,2.4205,2.4193,2.4195,2.4245,2.4246,2.4268,2.4267,2.4269,2.4269,2.4365,2.4366,2.4405,0,0,0,2.4163,2.4171,2.4178,2.4182,2.4204,2.4226,2.4205,2.4244,2.4248,2.4267,2.4269,2.427,2.4364,2.4366,2.4402,2.4421,0,0,0,2.4162,2.4171,2.4178,2.4182,2.4199,2.4225,2.4228,2.4244,2.4248,2.4268,2.427,2.4364,2.4365,2.44,2.4418,2.445,0,0,0,2.4163,2.4211,2.4179,2.4232,2.4198,2.4249,2.4228,2.4265,2.4286,2.4269,2.4365,2.4366,2.4399,2.4415,2.4448,2.4479,2.4492,0,0,2.4227,2.4219,2.4249,2.4222,2.428,2.4243,2.4306,2.4318,2.4313,2.4349,2.4351,2.4403,2.4417,2.445,2.4565,2.4576,0,0,0,2.4272,2.4294,2.4308,2.433,2.4342,2.4354,2.4356,2.4361,2.4391,2.4333,2.4423,2.4431,2.445,2.4464,2.4474,2.4489,2.4373,2.4373,2.4373,2.4371,2.4364,2.4415,2.4412,2.4434,2.4437,2.4453,2.446,2.4445,2.4467,2.4477,2.4549,2.4566,2.4573,2.4589,2.4493,2.4493,2.4493,2.4493,2.4465,2.4496,2.4477,2.4519,2.4511,2.4546,2.4551,2.4539,2.4571,2.454,2.4556,2.4523,2.4585,2.4599,2.4496,2.4495,2.4495,2.4495,2.4495,2.453,2.4543,2.455,2.4582,2.4607,2.4602,2.4634,2.4624,2.4616,2.4632,2.4642,2.4641,2.464,2.4637,2.4638,2.4638,2.4638,2.4638,2.4638,2.4595,2.4601,2.4629,2.4647,2.4661,2.4677,2.4682,2.4694,2.4706,2.4697,2.4697,2.468,2.4593,2.4571,2.4642,2.4641,2.4641,2.4641,2.464,2.4693,2.467,2.4713,2.4727,2.4748,2.4774,2.4763,2.479,2.4799,2.4815,2.4795,2.4732,2.4722,2.4715,2.4697,2.4796,2.4796,2.4796,2.4796,2.4748,2.4743,2.4786,2.4809,2.483,2.4825,2.4875,2.4879,2.4879,2.4885,2.4869,2.4844,2.4837,2.4832,2.4822,2.4805,2.493,2.493,2.493,2.4808,2.4805,2.4849,2.4851,2.4867,2.4881,2.4928,2.4954,2.4949,2.4935,2.4889,2.4883,2.4843,2.483,2.4815,2.48,2.4768,0,0]}]]